Dothan Regional Airport
KDHN : now visible

Airfield :











YOU CAN JOIN US ON...

 
LOGIN :

Register | Disclaimer

   EN    FR    IT 

 









Legend :    VFR   Marginal VFR   IFR   Intensive IFR   Very Intensive IFR
Visi :
Ceiling :
>= 8 km
>= 3000ft
5 to 8 km
1000 to 3000 ft
1500m to 5 km
500 to 1000 ft
800 to 1500m
200 to 500 ft
< 800m
< 200 ft
Symbols :   Thunderstorms  Fog  Heavy snow  Heavy precipitations  Wind > 20 kt






- Airport Elevation : 401 ft
- IATA code : DHN


KDHN - Dothan Regional

CURRENT METAR :
  • 190853Z AUTO 09004KT 10SM FEW015 24/23 A3004 RMK AO2 SLP166 T02390228 56007

EXPIRED METARs :
  • 190753Z AUTO 14005KT 10SM FEW018 24/23 A3004 RMK AO2 SLP166 T02390228
  • 190653Z AUTO 10003KT 10SM SCT110 24/23 A3005 RMK AO2 SLP168 T02440228

TAF KDHN
Valid from the 19 at 06:00 until the 20 at 06:00 UTC


190520Z 1906/2006 22005KT P6SM SCT100 BKN250
FM191200 12005KT 6SM +SHRA BKN040
FM191600 14010KT 3SM +SHRA OVC011
TEMPO 1916/1920 2SM +TSRA OVC010CB
FM192000 18012G25KT 5SM +SHRA BKN010
FM200000 17016G28KT 5SM +SHRA OVC015
KZJX FIR / North America



MET'MAP, your aeronautical weather chart ! - Copyright ORBIFLY December 2007 - Disclaimer

ORBIFLY MET'MAP TEAM :

Programming & Development : Alexandra Zaïnal
Concept & original design : Baudouin d'Aumeries
Assistance for programming : Marc-Olivier Méhu
Technical & hardware support : Manuel Goepfert

Contact : metmap@orbifly.com




SOURCES & CREDITS :

   NOAA       Earth
Advisory